Weather in Yoshkir

Uzbekistan     40°06′32″N   65°24′11″E
temp.,
°C
wind,
m/s
gust,
m/s
humid.,
%
clouds,
%
prec.,
mm/h
press.,
hPa
HPBL,
m
23 september, thu
thu2323:00+19e23180 0.0 101220
02:00+18e33190 0.0 101122
05:00+17e44200 0.0 101230
08:00+19e46160 0.0 1012175
11:00+27ene45110 0.0 1012765
14:00+30nnw43100 0.0 10101689
17:00+29nnw65100 0.0 10091136
20:00+22ese44150 0.0 101041
24 september, fri
fri2423:00+20e33170 0.0 101123
02:00+18ene33190 0.0 101122
05:00+17e33210 0.0 101222
08:00+20e46190 0.0 1013167
11:00+28ene66110 0.0 1012776
14:00+32ne4390 0.0 10101751
17:00+32n3380 0.0 10101662
20:00+23e45160 0.0 101154
25 september, sat
sat2523:00+21e58180 0.0 101284
02:00+19e44190 0.0 101142
05:00+18e45200 0.0 101246
08:00+21e46170 0.0 1012141
11:00+30e44100 0.0 1012620
14:00+34ene2260 0.0 10101419
17:00+34n3360 0.0 10091361
20:00+25n22110 0.0 100911
26 september, sun
sun2623:00+25ese44110 0.0 100926
02:00+23e44150 0.0 100836
05:00+21e44170 0.0 100826
08:00+25ese22130 0.0 100957
11:00+32wnw2380 0.0 1008756
14:00+34nw8780 0.0 10081359
17:00+30nw89190 0.0 10101258
20:00+25nnw812310 0.0 1012290
27 september, mon
mon2723:00+22nnw913380 0.0 1013342
02:00+20n711420 0.0 1014246
05:00+17nnw45450 0.0 101584
08:00+19nne12400 0.0 1016143
11:00+24nnw33270 0.0 10161058
14:00+26nnw76200 0.0 10151404
17:00+25nnw88200 0.0 10141095
20:00+21nnw711270 0.0 1015223